Location: Poughquag
(41.6090°N, 73.6820°W)
Time: 02:39:02
(UTC-04:00)

Explorer 11/Cluster Stage 4 - Pass Details

Date: 30 May 2020
Orbit: 467 x 1259 km, 28.8° (Epoch: 06 July)

Event Time Altitude Azimuth Distance (km) Brightness Sun altitude
Rises 10:42:13 0° 257° (WSW) 4,036 10.0 56.4°
Reaches altitude 10° 10:45:27 10° 246° (WSW) 3,148 9.6 56.9°
Maximum altitude 10:51:55 27° 193° (SSW) 2,189 9.4 58.0°
Drops below altitude 10° 10:58:30 10° 140° (SE) 3,202 10.3 59.0°
Sets 11:01:50 0° 129° (SE) 4,117 10.7 59.6°
